When you browse on this site, cookies collect data to enhance your experience and personalize the content and advertising you see.
Visit our Privacy Policy to learn more. By continuing to use the site, you agree to this use of cookies and data.
  • In Spain
  • List of Countries
  • For 7 days
  • Water Temperature
  • Satellite Maps
  • Weather Map
  • Weather Widgets
  • user-avatar
    Login

    Hourly Weather Irbid

    Today, 21 January, Monday

    Time Temperature Precipitation Wind Pressure Humidity
    00:00 +9°C° 0 mm 2 mps 713 mmHg 51%
    01:00 +8°C° 0 mm 3 mps 713 mmHg 52%
    02:00 +8°C° 0 mm 2 mps 712 mmHg 54%
    03:00 +7°C° 0 mm 2 mps 712 mmHg 55%
    04:00 +7°C° 0 mm 3 mps 712 mmHg 56%
    05:00 +7°C° 0 mm 3 mps 712 mmHg 57%
    06:00 +7°C° 0 mm 3 mps 713 mmHg 56%
    07:00 +8°C° 0 mm 2 mps 713 mmHg 56%
    08:00 +8°C° 0 mm 2 mps 713 mmHg 55%
    09:00 +10°C° 0 mm 2 mps 713 mmHg 50%
    10:00 +13°C° 0 mm 2 mps 713 mmHg 44%
    11:00 +14°C° 0 mm 2 mps 713 mmHg 39%
    12:00 +15°C° 0 mm 2 mps 713 mmHg 36%
    13:00 +16°C° 0 mm 1 mps 713 mmHg 33%
    14:00 +18°C° 0 mm 1 mps 713 mmHg 31%
    15:00 +15°C° 0 mm 1 mps 712 mmHg 36%
    16:00 +14°C° 0 mm 1 mps 712 mmHg 41%
    17:00 +12°C° 0 mm 0 mps 712 mmHg 46%
    18:00 +11°C° 0 mm 0 mps 712 mmHg 47%
    19:00 +11°C° 0 mm 0 mps 712 mmHg 47%
    20:00 +11°C° 0 mm 1 mps 712 mmHg 48%
    21:00 +11°C° 0 mm 1 mps 712 mmHg 47%
    22:00 +11°C° 0 mm 1 mps 712 mmHg 47%
    23:00 +11°C° 0 mm 1 mps 712 mmHg 47%

    Tomorrow, 22 January, Tuesday

    Time Temperature Precipitation Wind Pressure Humidity
    00:00 +10°C° 0 mm 1 mps 712 mmHg 47%
    01:00 +10°C° 0 mm 1 mps 711 mmHg 47%
    02:00 +10°C° 0 mm 1 mps 711 mmHg 48%
    03:00 +10°C° 0 mm 1 mps 711 mmHg 48%
    04:00 +9°C° 0 mm 1 mps 711 mmHg 48%
    05:00 +9°C° 0 mm 1 mps 711 mmHg 49%
    06:00 +10°C° 0 mm 1 mps 711 mmHg 48%
    07:00 +11°C° 0 mm 1 mps 711 mmHg 47%
    08:00 +12°C° 0 mm 1 mps 712 mmHg 46%
    09:00 +13°C° 0 mm 1 mps 712 mmHg 41%
    10:00 +15°C° 0 mm 1 mps 712 mmHg 36%
    11:00 +16°C° 0 mm 1 mps 713 mmHg 31%
    12:00 +18°C° 0 mm 1 mps 712 mmHg 31%
    13:00 +18°C° 0 mm 2 mps 712 mmHg 30%
    14:00 +18°C° 0 mm 2 mps 712 mmHg 30%
    15:00 +17°C° 0 mm 2 mps 711 mmHg 35%
    16:00 +15°C° 0 mm 2 mps 711 mmHg 41%
    17:00 +14°C° 0 mm 2 mps 711 mmHg 47%
    18:00 +13°C° 0 mm 1 mps 711 mmHg 52%
    19:00 +12°C° 0 mm 1 mps 711 mmHg 56%
    20:00 +11°C° 0 mm 1 mps 711 mmHg 61%
    21:00 +10°C° 0 mm 0 mps 711 mmHg 63%
    22:00 +9°C° 0 mm 0 mps 711 mmHg 65%
    23:00 +9°C° 0 mm 0 mps 712 mmHg 66%

    Day after tomorrow, 23 January, Wednesday

    Time Temperature Precipitation Wind Pressure Humidity
    00:00 +8°C° 0 mm 0 mps 711 mmHg 67%
    01:00 +8°C° 0 mm 0 mps 711 mmHg 67%
    02:00 +7°C° 0 mm 0 mps 711 mmHg 68%
    03:00 +7°C° 0 mm 0 mps 711 mmHg 67%
    04:00 +7°C° 0 mm 0 mps 711 mmHg 67%
    05:00 +7°C° 0 mm 0 mps 711 mmHg 66%
    06:00 +8°C° 0 mm 0 mps 711 mmHg 63%
    07:00 +10°C° 0 mm 1 mps 712 mmHg 59%
    08:00 +11°C° 0 mm 1 mps 712 mmHg 55%
    09:00 +13°C° 0 mm 1 mps 712 mmHg 48%
    10:00 +14°C° 0 mm 1 mps 712 mmHg 41%
    11:00 +16°C° 0 mm 1 mps 713 mmHg 34%
    12:00 +18°C° 0 mm 1 mps 712 mmHg 31%
    13:00 +17°C° 0 mm 2 mps 712 mmHg 29%
    14:00 +18°C° 0 mm 2 mps 711 mmHg 26%
    15:00 +17°C° 0 mm 2 mps 711 mmHg 30%
    16:00 +16°C° 0 mm 2 mps 710 mmHg 33%
    17:00 +15°C° 0 mm 2 mps 710 mmHg 37%
    18:00 +14°C° 0 mm 2 mps 710 mmHg 38%
    19:00 +13°C° 0 mm 3 mps 710 mmHg 39%
    20:00 +12°C° 0 mm 3 mps 710 mmHg 40%
    21:00 +12°C° 0 mm 3 mps 710 mmHg 41%
    22:00 +11°C° 0 mm 3 mps 710 mmHg 42%
    23:00 +11°C° 0 mm 3 mps 710 mmHg 43%

    24 January, Thursday

    Time Temperature Precipitation Wind Pressure Humidity
    00:00 +10°C° 0 mm 3 mps 709 mmHg 44%
    01:00 +10°C° 0 mm 3 mps 709 mmHg 44%
    02:00 +9°C° 0 mm 3 mps 709 mmHg 45%
    03:00 +9°C° 0 mm 3 mps 709 mmHg 45%
    04:00 +9°C° 0 mm 3 mps 708 mmHg 46%
    05:00 +8°C° 0 mm 4 mps 708 mmHg 46%
    06:00 +8°C° 0 mm 4 mps 708 mmHg 47%
    07:00 +10°C° 0 mm 4 mps 709 mmHg 47%
    08:00 +10°C° 0 mm 4 mps 709 mmHg 47%
    09:00 +12°C° 0 mm 4 mps 709 mmHg 41%
    10:00 +15°C° 0 mm 4 mps 709 mmHg 34%
    11:00 +18°C° 0 mm 4 mps 709 mmHg 28%
    12:00 +19°C° 0 mm 4 mps 709 mmHg 26%
    13:00 +20°C° 0 mm 4 mps 708 mmHg 24%
    14:00 +20°C° 0 mm 3 mps 708 mmHg 22%
    15:00 +19°C° 0 mm 3 mps 708 mmHg 25%
    16:00 +18°C° 0 mm 2 mps 708 mmHg 27%
    17:00 +17°C° 0 mm 2 mps 708 mmHg 30%
    18:00 +16°C° 0 mm 2 mps 708 mmHg 31%
    19:00 +15°C° 0 mm 2 mps 708 mmHg 33%
    20:00 +14°C° 0 mm 2 mps 709 mmHg 34%
    21:00 +13°C° 0 mm 2 mps 709 mmHg 44%
    22:00 +12°C° 0 mm 2 mps 710 mmHg 53%
    23:00 +10°C° 0 mm 2 mps 710 mmHg 62%

    25 January, Friday

    Time Temperature Precipitation Wind Pressure Humidity
    00:00 +10°C° 0 mm 1 mps 710 mmHg 71%
    01:00 +10°C° 0 mm 1 mps 710 mmHg 80%
    02:00 +9°C° 0 mm 1 mps 710 mmHg 88%
    03:00 +9°C° 0 mm 1 mps 710 mmHg 90%
    04:00 +8°C° 0 mm 0 mps 710 mmHg 92%
    05:00 +8°C° 0 mm 0 mps 711 mmHg 94%
    06:00 +9°C° 0 mm 1 mps 711 mmHg 91%
    07:00 +10°C° 0 mm 1 mps 712 mmHg 89%
    08:00 +10°C° 0 mm 2 mps 712 mmHg 86%
    09:00 +12°C° 0 mm 1 mps 712 mmHg 74%
    10:00 +14°C° 0 mm 1 mps 712 mmHg 62%
    11:00 +15°C° 0 mm 1 mps 712 mmHg 50%
    12:00 +16°C° 0 mm 1 mps 712 mmHg 45%
    13:00 +18°C° 0 mm 1 mps 712 mmHg 39%
    14:00 +19°C° 0 mm 1 mps 711 mmHg 34%
    15:00 +18°C° 0 mm 1 mps 711 mmHg 39%
    16:00 +15°C° 0 mm 0 mps 711 mmHg 44%
    17:00 +14°C° 0 mm 0 mps 711 mmHg 50%
    18:00 +14°C° 0 mm 1 mps 711 mmHg 50%
    19:00 +14°C° 0 mm 1 mps 711 mmHg 50%
    20:00 +13°C° 0 mm 1 mps 711 mmHg 50%
    21:00 +13°C° 0 mm 1 mps 710 mmHg 51%
    22:00 +12°C° 0 mm 1 mps 710 mmHg 52%
    23:00 +12°C° 0 mm 1 mps 710 mmHg 53%

    26 January, Saturday

    Time Temperature Precipitation Wind Pressure Humidity
    00:00 +12°C° 0 mm 1 mps 710 mmHg 55%
    01:00 +11°C° 0 mm 1 mps 710 mmHg 57%
    02:00 +11°C° 0 mm 1 mps 709 mmHg 58%
    03:00 +10°C° 0 mm 1 mps 709 mmHg 60%
    04:00 +10°C° 0 mm 1 mps 709 mmHg 61%
    05:00 +9°C° 0 mm 1 mps 709 mmHg 62%
    06:00 +11°C° 0 mm 1 mps 709 mmHg 60%
    07:00 +12°C° 0 mm 1 mps 709 mmHg 58%
    08:00 +13°C° 0 mm 1 mps 710 mmHg 55%
    09:00 +14°C° 0 mm 1 mps 710 mmHg 48%
    10:00 +16°C° 0 mm 1 mps 710 mmHg 41%
    11:00 +18°C° 0 mm 1 mps 711 mmHg 34%
    12:00 +19°C° 0 mm 1 mps 710 mmHg 31%
    13:00 +20°C° 0 mm 1 mps 710 mmHg 29%
    14:00 +19°C° 0 mm 2 mps 709 mmHg 26%
    15:00 +19°C° 0 mm 1 mps 709 mmHg 31%
    16:00 +18°C° 0 mm 1 mps 709 mmHg 36%
    17:00 +15°C° 0 mm 1 mps 709 mmHg 41%
    18:00 +14°C° 0 mm 1 mps 709 mmHg 43%
    19:00 +13°C° 0 mm 1 mps 709 mmHg 45%
    20:00 +13°C° 0 mm 1 mps 709 mmHg 47%
    21:00 +12°C° 0 mm 1 mps 708 mmHg 47%
    22:00 +12°C° 0 mm 1 mps 708 mmHg 48%
    23:00 +11°C° 0 mm 1 mps 708 mmHg 48%
    Show more